星链-3549 (STARLINK-3549 )

导读 | 豆包AI

STARLINK-3549是美国太空探索技术公司(SpaceX)星链卫星星座的成员,于2022年3月3日发射。星链计划旨在搭建全球卫星互联网,为全球提供宽带互联网服务,该卫星入轨后,进一步扩充了星链星座的规模,助力提升星座网络的覆盖能力与服务稳定性。

Basic Information
目录编号:
51891
目录名称:
STARLINK-3549
国际标识:
2022-022AR
轨道中心:
EARTH
卫星名称:
星链-3549
卫星全名:
星链-3549 (STARLINK-3549 )
卫星状态:
在轨 (已飞行1519 天)
发射日期:
2022-03-03 UTC
国别 :
美国 (US)
星等 :
--
Orbit Information
数据来源 国际轨道数据 AOE轨道数据
星历时间 2026-04-30T14:41:37+0800
10小时前
查看轨道信息
2026-04-29T21:00:00+0800
1天前
查看轨道信息
半长轴 6917.881km 6917.87km
偏心率 0.0001194 0.0001085
轨道倾角 53.216° 53.213°
近地点辐角 73.462° 61.435°
升交点赤经 127.528° 130.840°
平近点角 286.650° 251.964°
近地点 538.918km 538.982km
远地点 540.57km 540.484km
周期 95.438分钟 95.437分钟
每日圈数 15.088399 15.088437
Detailed Information
固有亮度:
5
最大亮度:
2.5
卫星平台:
Starlink v1.5
覆盖范围:
全球
运营商:
太空探索技术公司
运营商所在国:
美国
制造商(研发单位):
太空探索技术公司
制造商所在国:
美国
使用方式:
暂无
Satellite Introduction
星链(Starlink)计划是由太空探索技术公司(SpaceX)提出的一个巨型低轨卫星互联网星座项目,计划在2019年至2024年间在太空搭建由约1.2万颗卫星组成的“星链”网络,其中1584颗将部署在地球上空550千米处的近地轨道,并从2020年开始工作。该卫星仍在工作。
2D Orbit Map
3D Orbit Map
Orbit Altitude Analysis Chart
Orbit Inclination Analysis Chart
Orbit Comprehensive Analysis Chart
View Comprehensive Chart